User: anonymous   Login
Location: Berville
(49.1893°N, 2.0748°E)
Time: 22:21:48
(UTC+00:00)
Language:

FENGYUN 1C DEB - Orbit

View from above orbital plane
View from above orbital plane
View from above satellite
View from above satellite

Ground track
Ground track

The orbit data is extracted from the following two-line orbital elements,

1 30277U 99025YN  24056.67281397  .00002925  00000-0  16039-2 0  9993
2 30277  99.0274 119.7692 0132400 224.3866 288.6622 14.08267269875366
Epoch (UTC): 25 February 2024 16:08:51
Eccentricity: 0.0132400
inclination: 99.0274°
perigee height: 769 km
apogee height: 961 km
right ascension of ascending node: 119.7692°
argument of perigee: 224.3866°
revolutions per day: 14.08267269
mean anomaly at epoch: 288.6622°
orbit number at epoch: 87536

The dashed part of the orbit path shows where the satellite is in the earth's shadow,  

DLR